RH
30 31 30 30 29 28 27 25 24 22 22 21 22 23 23 22 20 18 18 18 20 23 23 22 20 21 24 25 33 44 53 45 39
28 27 27 25 21 19 19 18 18 17 17 17 19 20 23 24 25 25 25 25 23 22 22 24 25 24 23 26 32 62 90 83 80
39 34 28 26 25 22 21 21 22 23 24 26 28 28 28 29 30 28 27 26 26 27 27 26 25 24 25 26 26 27 32 35 37
41 41 37 32 28 26 25 25 25 26 28 29 30 30 31 31 33 34 32 30 29 29 29 27 26 27 27 27 28 29 30 30 31
41 40 41 40 38 36 35 35 36 37 38 38 38 38 36 33 31 32 32 32 31 32 30 28 28 28 27 28 28 29 29 28 29
44 42 41 41 43 42 41 40 40 41 41 42 44 44 42 39 35 34 33 32 33 31 29 27 26 25 23 21 19 18 18 17 17
44 45 43 43 42 41 40 40 42 42 42 41 41 42 42 42 36 33 33 32 31 30 28 28 26 22 17 14 12 11 10 10 10
46 46 46 45 45 44 45 45 46 49 48 47 46 45 44 43 37 34 32 32 30 31 30 29 27 25 22 17 15 14 14 15 15
48 48 47 47 47 47 48 49 52 56 55 54 51 49 47 44 38 35 34 32 31 31 29 27 26 24 23 22 20 18 17 16 16
49 49 49 49 49 50 50 53 56 62 60 56 54 54 55 50 41 37 36 34 33 31 32 32 31 30 28 25 22 19 18 17 17
50 50 50 50 51 52 53 55 62 65 61 59 57 59 59 55 47 41 37 36 36 38 38 38 38 36 33 30 27 23 22 20 19
52 52 52 52 53 54 56 60 65 65 63 65 62 62 67 64 58 49 42 40 42 46 46 45 44 43 42 42 40 38 34 30 27
53 54 55 55 56 58 59 63 62 58 62 62 66 73 78 82 80 76 57 45 48 50 50 50 50 48 46 46 46 45 43 42 40
56 57 59 58 60 60 58 57 57 56 57 62 70 80 88 84 79 76 59 53 56 56 57 58 57 54 46 46 47 47 45 42 41
55 57 58 56 56 57 58 59 57 54 61 68 75 84 85 78 81 83 68 57 60 63 59 56 50 50 49 48 49 50 48 43 39
57 58 57 56 56 58 59 57 55 59 69 72 84 91 94 81 86 85 83 73 72 67 63 55 53 52 50 50 50 52 50 44 35
64 63 60 60 60 61 61 63 65 69 72 73 86 94 89 93 89 90 86 84 80 71 63 59 57 55 54 53 53 54 52 44 30
65 68 68 66 67 65 63 69 76 76 79 81 86 98 97 98 87 95 88 92 88 69 65 62 60 57 55 54 53 53 52 40 26
69 74 76 72 72 68 66 68 78 87 95 97 93 88 99 96 96 91 88 84 76 68 66 65 61 60 58 56 54 54 52 35 21
74 75 77 78 77 75 78 80 85 87 97 100 99 99 98 100 98 98 93 81 78 67 67 68 65 63 61 60 59 57 43 24 19
Wind_Speed
5 5 5 4 4 3 3 3 3 2 2 2 2 3 3 3 3 4 5 6 6 6 7 6 7 7 7 6 6 6 6 6 5
6 6 5 5 4 3 3 3 3 4 5 4 5 5 4 4 5 5 5 6 5 6 6 7 8 9 10 9 7 5 4 3 1
6 6 5 4 3 3 3 4 5 6 6 7 6 5 5 5 6 6 6 6 7 7 7 7 8 9 9 9 9 9 10 10 8
6 5 4 3 3 3 3 4 5 6 6 5 5 6 7 7 7 8 8 8 8 7 8 9 9 9 10 11 11 11 12 12 12
5 6 5 4 3 2 2 3 4 5 5 6 7 8 9 10 9 9 8 8 9 10 12 11 11 12 12 13 13 14 14 16 16
1 3 5 4 3 2 3 3 4 4 5 6 8 9 10 11 11 10 9 8 9 12 14 14 14 15 15 15 15 15 15 17 17
5 3 3 4 4 3 4 3 4 6 7 8 9 10 11 13 13 12 11 10 10 13 14 16 15 16 16 17 16 15 15 16 16
8 7 6 6 6 6 6 5 3 5 7 9 10 12 13 13 13 12 12 12 13 14 15 16 16 16 16 16 17 16 16 16 16
12 11 11 10 9 9 9 8 6 6 8 10 12 13 15 15 14 13 14 15 14 14 15 16 16 16 16 16 16 17 18 18 18
15 14 14 13 13 13 12 11 9 10 11 12 13 14 15 15 14 14 15 16 17 16 16 16 16 17 16 16 16 17 18 19 19
17 17 17 16 16 16 15 13 13 14 14 14 15 16 15 14 14 15 17 17 18 18 18 18 17 17 17 17 16 17 19 20 21
19 19 18 18 18 18 17 16 16 16 16 16 16 15 13 13 15 17 18 18 16 15 15 16 17 18 19 19 19 19 20 21 23
20 20 19 20 19 19 18 18 18 18 18 18 15 13 12 15 17 18 19 19 18 16 15 14 16 20 22 23 23 23 24 24 25
19 19 21 21 20 20 20 20 20 21 20 18 16 14 14 16 18 18 19 19 17 18 18 21 25 25 25 25 26 26 27 28 29
21 21 22 21 20 20 21 22 22 22 20 19 18 16 17 20 20 19 20 21 22 25 25 24 22 24 26 28 29 30 30 31 31
23 22 22 22 21 22 24 24 23 22 22 21 19 19 20 20 20 22 22 24 25 23 22 23 24 25 28 30 32 33 34 35 35
26 25 24 24 24 25 26 25 24 24 24 22 22 23 23 21 23 23 25 25 25 24 24 25 26 29 31 33 34 35 35 36 36
29 28 27 27 27 26 26 26 26 25 26 25 25 26 25 26 26 27 26 27 25 26 27 28 30 32 34 36 38 38 38 38 38
33 31 31 30 30 29 26 25 27 27 27 28 30 30 29 28 29 29 28 26 27 29 29 31 34 36 38 40 42 42 42 41 41
32 32 31 32 33 30 28 29 28 31 31 30 30 32 32 31 32 33 26 29 32 33 32 34 37 39 41 43 45 45 44 44 44
Wind_Direction
9 4 359 8 7 9 7 30 44 39 40 36 26 23 1 338 332 335 327 326 330 325 312 317 310 310 314 307 315 316 318 318 336
19 14 10 10 11 9 23 34 46 52 54 49 41 34 26 6 351 336 333 327 323 310 310 314 316 317 315 320 329 359 4 6 284
24 19 19 18 25 41 52 61 59 55 52 43 33 21 7 351 337 326 322 315 309 309 311 309 312 310 308 307 299 293 289 290 282
23 13 10 12 22 43 57 64 60 57 52 38 19 6 357 343 330 322 315 308 303 304 300 301 303 301 301 300 299 295 290 290 284
29 9 357 351 357 11 22 35 36 38 30 14 3 356 351 343 333 321 310 305 308 304 301 303 304 300 298 296 294 291 291 287 283
310 10 353 338 329 327 334 353 4 9 2 353 348 344 339 336 330 322 313 310 309 304 304 308 308 305 302 299 294 292 290 286 284
265 267 294 311 299 292 301 320 342 351 348 342 337 331 328 325 323 316 311 308 305 304 309 310 311 309 307 304 301 300 295 291 289
263 260 258 262 276 276 280 287 305 322 324 327 327 323 318 315 313 306 301 300 303 304 307 307 308 307 306 306 306 305 300 298 297
255 255 254 254 256 258 263 266 264 297 308 312 315 315 312 307 302 297 297 300 303 305 307 309 309 309 309 310 310 307 304 301 298
254 252 251 251 253 254 256 258 261 287 295 301 303 304 303 302 302 300 303 305 306 306 305 306 308 311 312 312 312 309 306 303 300
253 254 251 253 253 257 258 255 267 282 287 288 296 297 299 298 301 302 304 305 307 308 308 310 313 314 314 312 311 309 306 304 301
252 252 254 254 254 257 258 256 269 278 280 287 289 294 296 303 307 305 302 297 295 299 307 313 315 316 315 314 312 310 306 304 301
250 252 252 253 256 258 258 264 272 277 280 285 282 288 291 306 304 299 295 290 289 291 295 304 316 317 314 313 313 312 308 304 300
251 252 251 253 253 255 260 266 272 274 279 280 277 279 286 304 309 303 293 288 290 293 297 301 307 308 310 311 310 310 307 306 302
248 251 252 253 254 259 266 267 269 271 275 277 273 272 285 297 301 301 290 284 288 294 296 297 300 304 308 310 311 310 308 305 302
247 249 251 253 258 261 261 264 268 272 273 278 273 269 278 292 296 301 294 286 288 291 295 296 300 304 307 310 311 309 308 306 303
248 248 251 251 255 259 261 262 263 267 269 277 277 268 278 287 290 297 299 292 284 287 290 295 300 303 307 308 308 307 306 304 301
250 247 248 249 252 256 258 257 258 266 269 274 278 274 275 278 288 290 293 289 277 282 289 295 298 300 303 305 306 306 304 302 299
251 253 250 248 252 254 257 262 260 264 268 267 276 280 277 280 281 285 292 287 279 282 289 293 295 299 303 305 306 305 304 302 299
253 249 249 249 252 256 255 259 261 263 263 270 276 277 285 274 284 279 287 295 287 284 286 290 294 299 302 304 305 304 303 301 299